Total_Precipitation_Accumulation
0.91 0.91 0.80 0.78 0.78 0.76 0.73 0.76 0.85 0.93 1.04 1.09 1.13 1.17 1.20 1.29 1.34 1.45 1.60 1.74 1.77 1.78 1.68 1.71 1.83 1.88 2.05 2.08 2.04 2.00 1.99 1.92 1.79 1.70 1.46 1.23 1.22 1.31 1.38 1.30 1.33 1.33 1.16
0.99 0.90 0.81 0.82 0.83 0.87 0.85 0.79 0.83 0.88 0.90 0.99 1.12 1.10 1.09 1.14 1.23 1.34 1.43 1.48 1.59 1.56 1.48 1.50 1.60 1.66 1.80 1.92 2.02 1.93 1.93 1.89 1.89 1.84 1.61 1.38 1.31 1.33 1.39 1.37 1.28 1.26 1.24
1.00 0.98 0.87 0.76 0.77 0.82 0.82 0.75 0.73 0.78 0.82 0.95 1.09 1.21 1.13 1.03 1.12 1.22 1.26 1.29 1.30 1.26 1.25 1.30 1.35 1.41 1.54 1.65 1.76 1.85 1.86 1.79 1.89 1.88 1.68 1.44 1.31 1.30 1.33 1.32 1.29 1.35 1.25
1.07 1.00 0.96 0.88 0.88 0.81 0.71 0.68 0.69 0.68 0.66 0.72 0.87 0.98 1.04 1.01 0.97 0.98 1.02 1.17 1.17 1.08 1.01 1.01 1.03 1.05 1.17 1.31 1.41 1.57 1.74 1.86 1.94 1.96 1.81 1.53 1.35 1.32 1.37 1.42 1.43 1.37 1.38
1.14 1.10 1.01 0.94 0.83 0.74 0.66 0.58 0.58 0.53 0.53 0.60 0.77 0.93 0.99 0.99 1.02 1.02 0.95 0.99 1.05 1.07 1.01 0.90 0.82 0.82 0.92 1.01 1.11 1.37 1.57 1.74 1.89 1.94 1.86 1.69 1.51 1.42 1.37 1.37 1.47 1.58 1.58
0.96 0.97 0.99 0.94 0.77 0.68 0.59 0.51 0.48 0.47 0.48 0.51 0.60 0.76 0.92 0.89 1.05 1.09 1.01 0.92 0.94 0.95 0.96 0.94 0.93 0.88 0.76 0.73 0.80 0.96 1.21 1.42 1.61 1.73 1.76 1.62 1.45 1.42 1.46 1.46 1.45 1.53 1.59
0.79 0.80 0.82 0.80 0.65 0.58 0.47 0.42 0.43 0.44 0.46 0.46 0.53 0.66 0.79 0.94 0.97 0.86 0.94 0.94 0.91 0.92 0.90 0.90 0.93 0.92 0.96 0.86 0.80 0.79 0.83 1.00 1.25 1.47 1.50 1.45 1.51 1.44 1.40 1.36 1.34 1.34 1.36
0.64 0.65 0.63 0.62 0.58 0.50 0.41 0.38 0.39 0.42 0.46 0.46 0.49 0.54 0.61 0.79 0.84 0.75 0.93 0.96 0.96 0.97 0.95 0.97 1.01 1.04 1.00 1.11 1.09 0.99 0.92 0.91 1.01 0.96 1.06 1.33 1.44 1.46 1.46 1.48 1.51 1.42 1.36
0.44 0.51 0.55 0.55 0.51 0.45 0.40 0.45 0.50 0.48 0.47 0.45 0.43 0.45 0.48 0.56 0.65 0.63 0.77 0.91 1.01 1.01 0.91 0.92 0.98 1.02 1.21 1.25 1.16 1.14 1.06 1.00 1.13 1.14 1.15 1.21 1.28 1.29 1.32 1.41 1.47 1.42 1.36
0.29 0.35 0.42 0.47 0.49 0.51 0.59 0.67 0.67 0.63 0.56 0.49 0.44 0.41 0.43 0.45 0.58 0.47 0.59 0.77 0.94 1.06 0.99 0.94 1.09 1.06 1.07 1.03 1.00 1.19 1.17 1.05 0.96 0.92 0.93 0.98 0.99 1.05 1.14 1.18 1.33 1.35 1.29
0.14 0.20 0.31 0.45 0.52 0.59 0.68 0.70 0.67 0.61 0.54 0.49 0.46 0.42 0.40 0.47 0.61 0.55 0.63 0.73 0.86 0.97 0.99 1.00 0.97 1.05 0.88 0.84 0.89 1.04 1.20 1.14 1.08 1.09 1.02 0.96 0.94 0.94 0.91 0.97 1.12 1.22 1.24
0.14 0.18 0.26 0.36 0.48 0.61 0.68 0.64 0.62 0.61 0.55 0.50 0.51 0.47 0.47 0.56 0.62 0.62 0.64 0.70 0.78 0.87 0.87 0.78 0.77 0.84 0.70 0.65 0.65 0.79 0.97 1.00 1.00 1.07 1.04 0.97 0.91 0.88 0.86 0.86 0.94 1.03 1.07
0.14 0.14 0.16 0.24 0.37 0.53 0.58 0.59 0.60 0.61 0.58 0.53 0.49 0.47 0.46 0.53 0.61 0.71 0.63 0.56 0.55 0.64 0.67 0.65 0.58 0.55 0.55 0.51 0.54 0.64 0.71 0.86 1.00 1.02 0.92 0.85 0.86 0.89 0.89 0.88 0.84 0.87 0.90
0.13 0.14 0.12 0.12 0.16 0.23 0.30 0.38 0.44 0.48 0.48 0.46 0.45 0.46 0.48 0.48 0.47 0.52 0.55 0.52 0.47 0.47 0.46 0.38 0.37 0.40 0.46 0.48 0.49 0.51 0.58 0.80 0.98 0.96 0.88 0.82 0.83 0.88 0.95 0.98 0.95 0.89 0.88
0.12 0.12 0.12 0.13 0.15 0.15 0.17 0.22 0.26 0.28 0.35 0.41 0.42 0.43 0.43 0.44 0.43 0.46 0.47 0.48 0.54 0.57 0.59 0.50 0.44 0.42 0.42 0.46 0.49 0.54 0.66 0.77 0.87 0.83 0.83 0.81 0.82 0.88 0.93 0.98 1.05 1.02 0.95
0.12 0.11 0.09 0.10 0.12 0.13 0.14 0.16 0.18 0.18 0.22 0.25 0.27 0.27 0.25 0.30 0.37 0.38 0.41 0.43 0.45 0.53 0.60 0.61 0.60 0.59 0.58 0.57 0.56 0.53 0.54 0.62 0.71 0.77 0.78 0.80 0.80 0.80 0.81 0.85 0.93 0.99 0.97
0.11 0.12 0.10 0.08 0.10 0.12 0.13 0.16 0.18 0.16 0.13 0.11 0.14 0.18 0.19 0.19 0.20 0.25 0.31 0.37 0.39 0.43 0.50 0.53 0.54 0.53 0.54 0.53 0.51 0.49 0.47 0.47 0.54 0.64 0.75 0.82 0.85 0.84 0.84 0.80 0.79 0.82 0.81
0.12 0.14 0.14 0.15 0.16 0.14 0.15 0.19 0.22 0.23 0.19 0.12 0.10 0.12 0.14 0.16 0.14 0.14 0.16 0.21 0.23 0.25 0.33 0.38 0.39 0.39 0.40 0.42 0.40 0.38 0.38 0.40 0.43 0.47 0.57 0.70 0.86 0.96 0.97 0.94 0.89 0.86 0.86
0.12 0.12 0.14 0.18 0.19 0.19 0.21 0.24 0.23 0.22 0.19 0.15 0.11 0.09 0.11 0.11 0.13 0.13 0.12 0.12 0.13 0.14 0.17 0.21 0.23 0.25 0.28 0.29 0.30 0.31 0.32 0.35 0.39 0.42 0.45 0.50 0.62 0.78 0.90 0.95 1.01 1.08 1.06
0.14 0.15 0.14 0.15 0.17 0.20 0.21 0.21 0.19 0.18 0.15 0.13 0.11 0.11 0.11 0.12 0.11 0.10 0.10 0.11 0.13 0.14 0.15 0.17 0.18 0.19 0.22 0.25 0.25 0.27 0.28 0.30 0.34 0.38 0.41 0.46 0.53 0.62 0.72 0.82 0.87 0.94 1.00
0.13 0.14 0.14 0.13 0.13 0.14 0.14 0.15 0.16 0.14 0.13 0.11 0.09 0.09 0.11 0.14 0.15 0.14 0.14 0.14 0.14 0.15 0.15 0.16 0.18 0.20 0.22 0.26 0.33 0.37 0.35 0.34 0.37 0.41 0.47 0.50 0.53 0.59 0.63 0.72 0.79 0.84 0.90
0.12 0.12 0.11 0.11 0.13 0.13 0.12 0.13 0.14 0.16 0.16 0.14 0.12 0.11 0.13 0.15 0.16 0.16 0.15 0.14 0.14 0.15 0.16 0.18 0.19 0.20 0.22 0.26 0.35 0.46 0.50 0.47 0.44 0.46 0.52 0.56 0.59 0.62 0.66 0.73 0.79 0.86 0.89
0.11 0.12 0.12 0.12 0.12 0.12 0.13 0.14 0.14 0.15 0.16 0.17 0.18 0.17 0.17 0.17 0.16 0.15 0.15 0.16 0.17 0.18 0.19 0.20 0.20 0.21 0.23 0.28 0.33 0.39 0.44 0.49 0.53 0.57 0.61 0.64 0.66 0.69 0.72 0.74 0.77 0.83 0.87
0.10 0.10 0.13 0.15 0.15 0.15 0.16 0.16 0.15 0.15 0.16 0.17 0.17 0.18 0.18 0.19 0.18 0.16 0.16 0.18 0.20 0.20 0.22 0.23 0.24 0.24 0.26 0.30 0.33 0.37 0.40 0.44 0.46 0.49 0.56 0.65 0.68 0.70 0.74 0.75 0.76 0.78 0.84
0.10 0.10 0.13 0.15 0.16 0.17 0.19 0.20 0.21 0.19 0.17 0.17 0.17 0.18 0.18 0.19 0.19 0.18 0.18 0.19 0.21 0.23 0.24 0.24 0.24 0.27 0.31 0.32 0.34 0.38 0.50 0.52 0.50 0.49 0.53 0.60 0.65 0.68 0.74 0.80 0.87 0.90 0.90
0.12 0.12 0.13 0.15 0.16 0.17 0.20 0.23 0.24 0.23 0.22 0.20 0.20 0.22 0.22 0.22 0.22 0.22 0.22 0.22 0.24 0.26 0.27 0.29 0.31 0.32 0.34 0.36 0.37 0.42 0.48 0.47 0.49 0.55 0.57 0.58 0.63 0.67 0.74 0.84 0.89 0.94 0.99